www.pogodaiklimat.ru

Погода и климат >> Архив погоды >> Австралия >> Северная территория >> Пойнт Стьюарт


ПОГОДА в Пойнт Стьюарт

  • Прогноз погоды в Пойнт Стьюарт
  • Монитор погоды в Пойнт Стьюарт

АРХИВ ПОГОДЫ в Пойнт Стьюарт

Время (UTC), дата Ветер
(напр.,м/с)
 
Видим.   Явления Облачность Т
(С)
Тd
(С)
f
(%)
Тe
(С)
Тes
(С)
Комфортность P
(гПа)
Po
(гПа)
Тmin
(С)
Tmax
(С)
R
(мм)
R24
(мм)
S
(см)
17 9.06 0 н/о н/о +21.7 +21.7 100 1012.1 1011.9
20 9.06 штиль 0 н/о н/о +20.4 +20.4 100 +24 +24 комфорт 1011.6 1011.4
23 9.06 0 н/о н/о +26.2 +21.8 77 1012.7 1012.5
02 10.06 0 н/о н/о +28.8 +21.0 63 1011.7 1011.5 +19.7
05 10.06 0 н/о н/о +31.4 +21.0 54 1009.1 1008.9
08 10.06 0 н/о н/о +28.4 +21.2 65 1009.6 1009.4
11 10.06 0 н/о н/о +24.9 +22.8 88 1012.0 1011.8
14 10.06 штиль 0 н/о н/о +23.2 +23.0 99 +32 +32 очень
душно
1012.6 1012.4 +32.4
17 10.06 0 н/о н/о +21.8 +21.8 100 1012.4 1012.2
20 10.06 0 н/о н/о +21.1 +20.6 97 1013.2 1013.0
23 10.06 0 н/о н/о +26.6 +20.9 71 1014.9 1014.7
02 11.06 0 н/о н/о +31.0 +21.2 56 1013.5 1013.3 +20.8
05 11.06 0 н/о н/о +31.9 +21.1 53 1010.8 1010.6
08 11.06 штиль 0 н/о н/о +29.3 +22.0 65 +38 +38 очень
душно
1011.4 1011.2
11 11.06 0 н/о н/о +26.7 +24.0 85 1013.2 1013.0
14 11.06 0 н/о н/о +24.0 +24.0 100 1014.2 1014.0 +32.4
17 11.06 0 н/о н/о +24.8 +23.9 95 1013.3 1013.1
20 11.06 0 н/о н/о +22.5 +22.5 100 1013.7 1013.5
23 11.06 0 н/о н/о +26.3 +21.1 73 1015.4 1015.2
02 12.06 0 н/о н/о +30.4 +20.9 57 1014.5 1014.3 +22.0
05 12.06 0 н/о н/о +31.1 +21.0 55 1012.0 1011.8
08 12.06 0 н/о н/о +27.2 +23.0 78 1012.4 1012.2
11 12.06 0 н/о н/о +24.0 +23.0 94 1012.8 1012.6
17 12.06 0 н/о н/о +24.5 +24.0 97 1012.7 1012.5
20 12.06 0 н/о н/о +22.7 +22.7 100 1012.9 1012.7
23 12.06 0 н/о н/о +24.5 +23.1 92 1014.9 1014.7
02 13.06 0 н/о н/о +29.7 +20.3 57 1013.8 1013.6 +21.3
05 13.06 0 н/о н/о +30.0 +20.8 58 1010.6 1010.4
08 13.06 0 н/о н/о +26.9 +21.2 71 1010.8 1010.6
11 13.06 0 н/о н/о +25.0 +22.7 87 1013.0 1012.8
14 13.06 0 н/о н/о +23.1 +21.9 93 1013.5 1013.3 +30.9
17 13.06 0 н/о н/о +19.9 +19.9 100 1012.9 1012.7
20 13.06 0 н/о н/о +19.4 +19.4 100 1012.5 1012.3
23 13.06 0 н/о н/о +24.5 +20.6 79 1014.4 1014.2
02 14.06 0 н/о н/о +29.3 +17.8 50 1013.1 1012.9 +17.7
05 14.06 0 н/о н/о +30.8 +19.2 50 1009.9 1009.7
08 14.06 0 н/о н/о +27.6 +20.2 64 1010.0 1009.8
11 14.06 0 н/о н/о +22.5 +21.8 96 1012.1 1011.9
14 14.06 0 н/о н/о +20.9 +20.2 96 1012.4 1012.2 +32.2
17 14.06 0 н/о н/о +19.5 +19.5 100 1012.5 1012.3
20 14.06 0 н/о н/о +18.9 +18.9 100 1013.0 1012.8
23 14.06 0 н/о {туман} н/о +24.2 +19.3 74 1014.9 1014.7 0.2
02 15.06 0 н/о н/о +30.0 +18.1 49 1013.8 1013.6 +17.4
05 15.06 0 н/о н/о +30.3 +19.3 52 1011.3 1011.1
08 15.06 0 н/о н/о +27.4 +17.3 54 1011.2 1011.0
11 15.06 0 н/о н/о +21.4 +20.4 94 1013.1 1012.9
14 15.06 штиль 0 н/о н/о +20.2 +20.0 99 +24 +24 комфорт 1013.5 1013.3 +30.9
17 15.06 0 н/о н/о +22.9 +22.9 100 1012.7 1012.5
20 15.06 0 н/о н/о +20.0 +20.0 100 1013.2 1013.0
23 15.06 0 н/о н/о +25.6 +22.9 85 1015.0 1014.8
02 16.06 0 н/о н/о +29.9 +19.0 52 1013.8 1013.6 +19.5
05 16.06 0 н/о н/о +30.5 +19.2 51 1011.1 1010.9

 

Местоположение метеостанции Пойнт Стьюарт (Северная территория, Австралия): широта -12.23 долгота 131.88 высота над уровнем моря 1 м.

В архиве по умолчанию представлена погода в Пойнт Стьюарт за последнюю неделю. Архивные данные за месяц целиком и за предыдущие месяцы, начиная с января 2011 года, Вы можете получить, выбрав интересующий диапазон дат из раскрывающегося списка и нажав кнопку "Ввод!".


*Определитесь, кто Вы:
робот инопланетянин человек

Внимание! Время в таблицах - всемирное. Для получения местного времени необходимо прибавить поправку, которая равна 9.5 ч.

Смотрите также архив погоды в соседних городах и на ближайших метеорологических станциях:

Погода в Милд Пойнт (Северная территория, Австралия) (75 км)
Погода в Кейп-Доне (Северная территория, Австралия) (102 км)
Погода в Дарвине (Северная территория, Австралия) (110 км)
Погода в Джаберу (Северная территория, Австралия) (121 км)
Погода в Батчелоре (Северная территория, Австралия) (130 км)
Погода на Острове Дам-ин-Мирре (Северная территория, Австралия) (170 км)
Погода в Уорруви (Северная территория, Австралия) (176 км)
Погода на Острове Маклер (Северная территория, Австралия) (178 км)
Погода на Центральном плато Арнем (Северная территория, Австралия) (179 км)
Погода в Гарден-Пойнте (Северная территория, Австралия) (184 км)

Пояснения к столбцам:

Ветер - указаны скорость ветра в м/с - средняя за 10 мин, порывы в срок и между сроками (в фигурных скобках) и направление, откуда дует ветер: С - северный, СВ - северо-восточный, В - восточный, ЮВ - юго-восточный, Ю - южный, ЮЗ - юго-западный, З - западный, СЗ - северо-западный.
Видимость - горизонтальная дальность видимости в метрах или километрах. При видимости от 1 до 10 км при отсутствии осадков обычно наблюдается дымка, при ухудшении видимости до 1 км и менее - туман. В сухую погоду видимость может ухудшаться дымом, пылью или мглою.
Явления - указаны атмосферные явления, наблюдавшиеся в срок или в последний час перед сроком; фигурными скобками обозначены явления, наблюдавшиеся между сроками (за 1-3 часа до срока); квадратными скобками обозначены град или гололедные отложения с указанием их диаметра в мм.
Облачность - указаны через наклонную черту общая и нижняя облачность в баллах и высота нижней границы облаков в метрах; квадратными скобками обозначены формы облаков: Ci - перистые, Cs - перисто-слоистые, Cc - перисто-кучевые, Ac - высококучевые, As - высокослоистые, Sc - слоисто-кучевые, Ns - слоисто-дождевые, Cu - кучевые, Cb - кучево-дождевые. Подробнее классификацию облаков см. в Атласе облаков (PDF).
T - Температура воздуха - температура, измеренная на высоте 2 м над землей.
Td - Температура точки росы - температура, при понижении до которой содержащийся в воздухе водяной пар достигнет насыщения.
f - Относительная влажность воздуха - влажноcть воздуха, измеренная на высоте 2 м над землей.
Te - Эффективная температура - температура, которую ощущает одетый по сезону человек в тени. Характеристика душности погоды. При расчете учитывается влияние влажности воздуха и скорости ветра на теплоощущения человека.
Tes - Эффективная температура на солнце - температура, которую ощущает человек, с поправкой на солнечный нагрев. Характеристика знойности погоды. Зависит от высоты солнца над горизонтом, облачности и скорости ветра. Ночью, в пасмурную погоду, а также при ветре 12 м/с и более поправка равна нулю.
P - Атмосферное давление - приведенное к уровню моря атмосферное давление.
Po - Атмосферное давление - измеренное на уровне метеостанции атмосферное давление.
Tmin - Минимальная температура - минимум температуры воздуха на высоте 2 м над землей.
Tmax - Максимальная температура - максимум температуры воздуха на высоте 2 м над землей.
R - Количество осадков - Количество выпавших осадков за период времени, мм. При наведении курсора мыши на число - период времени, за который выпало указанное количество осадков.
R24 - Количество осадков - Количество выпавших осадков за 24 часа, мм.
S - Снежный покров - Высота снежного покрова, см. При наведении курсора мыши на число - состояние снежного покрова и степень покрытия местности в баллах.